Location: Doughton Park
(36.4224°N, 81.1835°W)
Time: 11:28:59
(UTC-04:00)

Amateur Radio Satellites - All Passes

Search period start: 22 July 2014 10:58
Search period end: 23 July 2014 10:58
Location: Doughton Park, 36.4224°N, 81.1835°W

Satellite Date Start Highest point End Downlink Frequencies (MHz)
Time Altitude Azimuth
ISS 22 Jul 11:05:16 11:07:19 15° 232° (SW) 11:09:20 145.800 FM
HO-68 22 Jul 11:07:14 11:14:17 64° 289° (WNW) 11:21:18 435.675 MHz FM
KITSAT 1 22 Jul 11:20:34 11:23:10 12° 330° (NNW) 11:25:46 435.175 FM
Sapphire 22 Jul 11:23:34 11:27:45 22° 51° (NE) 11:31:55 437.095 MHz 1200 baud AX-25 AFSK
Oscar 11 22 Jul 11:30:36 11:34:52 58° 285° (WNW) 11:39:06 145.825 FM, Beacon 2401.500 USB
FUNcube-1 22 Jul 11:31:14 11:35:14 45° 99° (E) 11:39:14 145.950 - 145.970 MHz USB
Saudisat 1A 22 Jul 11:39:13 11:41:10 13° 316° (NW) 11:43:08 436.775 MHz
PCSat 22 Jul 11:57:08 12:02:19 44° 58° (ENE) 12:07:28 145.825 MHz
PANSAT 22 Jul 12:03:40 12:06:30 20° 191° (S) 12:09:21 not established
Oscar 19 22 Jul 12:52:12 12:54:26 13° 62° (ENE) 12:56:40 437.125 CW, 437.150 USB
RS-15 22 Jul 12:56:13 12:57:30 10° 96° (E) 12:58:47 29.354 - 29.394 USB, Beacon 29.352 USB
HO-68 22 Jul 12:59:36 13:00:35 10° 308° (NW) 13:01:35 435.675 MHz FM
Sapphire 22 Jul 13:06:12 13:11:26 49° 248° (WSW) 13:16:37 437.095 MHz 1200 baud AX-25 AFSK
FUNcube-1 22 Jul 13:09:21 13:11:14 13° 294° (WNW) 13:13:06 145.950 - 145.970 MHz USB
Oscar 16 22 Jul 13:17:08 13:21:12 24° 67° (ENE) 13:25:16 437.025 USB, Beacon 2401.1428
ITAMSAT 1 22 Jul 13:24:49 13:27:01 13° 62° (ENE) 13:29:13 435.822 SSB
AO-27 22 Jul 13:40:29 13:44:03 19° 65° (ENE) 13:47:37 436.795 MHz FM
PCSat 22 Jul 13:41:18 13:45:24 22° 254° (WSW) 13:49:28 145.825 MHz
Uribyol 2 22 Jul 13:44:18 13:48:08 21° 66° (ENE) 13:51:59 436.500 FM
JAS-1B 22 Jul 13:47:14 13:53:29 23° 56° (NE) 14:00:16 435.800 - 435.900 CW/SSB
AO-Echo 22 Jul 14:03:30 14:08:04 31° 69° (ENE) 14:12:42 ?
Oscar 19 22 Jul 14:28:04 14:33:08 70° 258° (WSW) 14:38:15 437.125 CW, 437.150 USB
TMSAT-1 22 Jul 14:41:23 14:45:10 20° 66° (ENE) 14:48:57 436.925 FM
SO-50 22 Jul 14:44:39 14:49:03 70° 118° (ESE) 14:53:34 436.795 FM
Oscar 16 22 Jul 14:55:42 15:00:21 35° 262° (W) 15:05:01 437.025 USB, Beacon 2401.1428
RS-15 22 Jul 14:56:38 15:07:41 66° 114° (ESE) 15:18:26 29.354 - 29.394 USB, Beacon 29.352 USB
Gurwin Techsat 1B 22 Jul 14:59:35 15:04:32 42° 71° (ENE) 15:09:31 435.225 FM
ITAMSAT 1 22 Jul 15:00:38 15:05:50 74° 257° (WSW) 15:11:05 435.822 SSB
AO-7 22 Jul 15:13:18 15:18:56 20° 55° (NE) 15:24:33 29.400 - 29.500 MHz
AO-27 22 Jul 15:18:07 15:23:09 49° 260° (W) 15:28:13 436.795 MHz FM
KITSAT 1 22 Jul 15:19:52 15:23:53 14° 34° (NE) 15:27:54 435.175 FM
Uribyol 2 22 Jul 15:22:22 15:27:17 42° 261° (W) 15:32:14 436.500 FM
JAS-1B 22 Jul 15:34:27 15:42:37 84° 256° (WSW) 15:52:13 435.800 - 435.900 CW/SSB
AO-Echo 22 Jul 15:42:14 15:46:44 29° 264° (W) 15:51:20 ?
UOSAT-12 22 Jul 15:47:03 15:50:21 20° 110° (ESE) 15:53:41 437.025 FM, 437.400 FM
Uosat F 22 Jul 15:54:58 15:58:52 23° 67° (ENE) 16:02:46 435.120 FM
TMSAT-1 22 Jul 16:19:38 16:24:43 46° 261° (W) 16:29:49 436.925 FM
OPAL 22 Jul 16:23:35 16:26:51 17° 96° (E) 16:30:07 ?
SO-50 22 Jul 16:27:48 16:30:07 14° 316° (NW) 16:32:27 436.795 FM
Gurwin Techsat 1B 22 Jul 16:40:39 16:44:38 21° 266° (W) 16:48:37 435.225 FM
AO-7 22 Jul 17:02:18 17:10:40 86° 253° (WSW) 17:19:06 29.400 - 29.500 MHz
RS-15 22 Jul 17:10:49 17:20:41 36° 316° (NW) 17:30:30 29.354 - 29.394 USB, Beacon 29.352 USB
KITSAT 1 22 Jul 17:13:15 17:21:12 58° 57° (ENE) 17:29:06 435.175 FM
UOSAT-12 22 Jul 17:25:52 17:30:11 40° 306° (NW) 17:34:35 437.025 FM, 437.400 FM
JAS-1B 22 Jul 17:29:59 17:34:34 16° 276° (W) 17:39:31 435.800 - 435.900 CW/SSB
Uosat F 22 Jul 17:32:45 17:37:24 37° 262° (W) 17:42:04 435.120 FM
OPAL 22 Jul 18:01:05 18:05:56 49° 290° (WNW) 18:10:49 ?
Hamsat 22 Jul 18:11:35 18:15:23 35° 73° (ENE) 18:19:12 145.90 MHz
JAS-2 22 Jul 18:19:04 18:26:30 48° 70° (ENE) 18:33:45 435.800 - 435.900 CW/SSB, 435.910 FM
Saudisat 1A 22 Jul 18:26:10 18:30:02 29° 52° (NE) 18:33:52 436.775 MHz
SO-67 22 Jul 18:48:54 18:49:26 10° 68° (ENE) 18:49:59 435.3500 MHz FM
AO-7 22 Jul 19:00:18 19:04:25 14° 269° (W) 19:08:34 29.400 - 29.500 MHz
KITSAT 1 22 Jul 19:09:30 19:16:04 28° 255° (WSW) 19:22:37 435.175 FM
RS-15 22 Jul 19:32:43 19:37:49 14° 349° (N) 19:42:56 29.354 - 29.394 USB, Beacon 29.352 USB
Oscar 10/S400 22 Jul 19:34:54 19:51:11 29° 143° (SE) 20:11:50 145.825 - 145.975 CW/USB, Beacon 145.810 USB
Hamsat 22 Jul 19:48:55 19:51:27 16° 267° (W) 19:54:00 145.90 MHz
HO-68 22 Jul 19:49:55 19:52:54 13° 55° (NE) 19:55:54 435.675 MHz FM
JAS-2 22 Jul 20:04:36 20:11:31 34° 265° (W) 20:18:22 435.800 - 435.900 CW/SSB, 435.910 FM
Saudisat 1A 22 Jul 20:05:52 20:09:29 25° 248° (WSW) 20:13:05 436.775 MHz
STRAND 1 22 Jul 20:12:28 20:17:36 81° 103° (ESE) 20:22:42 ?
SO-67 22 Jul 20:18:53 20:22:07 37° 262° (W) 20:25:22 435.3500 MHz FM
HO-68 22 Jul 21:32:16 21:39:25 76° 72° (ENE) 21:46:35 435.675 MHz FM
AO-40 22 Jul 21:41:34 04:31:11 42° 183° (S) 10:09:42 Beacon 2401.320
RS-15 22 Jul 21:49:18 21:56:42 20° 27° (NNE) 22:04:10 29.354 - 29.394 USB, Beacon 29.352 USB
STRAND 1 22 Jul 21:54:38 21:56:03 11° 299° (WNW) 21:57:29 ?
Oscar 11 22 Jul 22:22:51 22:27:09 78° 76° (ENE) 22:31:28 145.825 FM, Beacon 2401.500 USB
MaSat-1 22 Jul 22:25:23 22:27:43 16° 100° (E) 22:30:15 437.345 MHz
FUNcube-1 22 Jul 22:25:29 22:29:16 28° 71° (ENE) 22:32:58 145.950 - 145.970 MHz USB
SO-50 22 Jul 23:18:45 23:23:03 33° 53° (NE) 23:27:22 436.795 FM
HO-68 22 Jul 23:23:19 23:27:42 17° 268° (W) 23:32:07 435.675 MHz FM
Lituanica SAT-1 22 Jul 23:58:06 23:58:42 11° 130° (SE) 23:59:18 437.275 MHz beacon
RS-15 23 Jul 00:00:59 00:11:55 62° 55° (NE) 00:23:14 29.354 - 29.394 USB, Beacon 29.352 USB
MaSat-1 23 Jul 00:01:06 00:04:35 33° 301° (WNW) 00:08:38 437.345 MHz
FUNcube-1 23 Jul 00:02:11 00:05:37 22° 265° (W) 00:09:00 145.950 - 145.970 MHz USB
UOSAT-12 23 Jul 00:19:43 00:21:24 12° 42° (NE) 00:23:05 437.025 FM, 437.400 FM
SO-50 23 Jul 00:59:30 01:03:29 27° 248° (WSW) 01:07:29 436.795 FM
Lituanica SAT-1 23 Jul 01:29:35 01:31:26 24° 324° (NW) 01:33:18 437.275 MHz beacon
UOSAT-12 23 Jul 01:57:31 02:02:16 86° 60° (ENE) 02:06:55 437.025 FM, 437.400 FM
Sapphire 23 Jul 02:02:44 02:07:24 31° 108° (ESE) 02:12:05 437.095 MHz 1200 baud AX-25 AFSK
ISS 23 Jul 02:08:10 02:11:27 61° 136° (SE) 02:14:46 145.800 FM
RS-15 23 Jul 02:14:06 02:23:39 35° 254° (WSW) 02:33:33 29.354 - 29.394 USB, Beacon 29.352 USB
AO-Echo 23 Jul 02:15:54 02:17:25 11° 90° (E) 02:18:55 ?
PCSat 23 Jul 02:36:01 02:41:22 69° 114° (ESE) 02:46:46 145.825 MHz
Oscar 19 23 Jul 02:42:15 02:47:16 51° 100° (E) 02:52:17 437.125 CW, 437.150 USB
Oscar 16 23 Jul 03:09:20 03:14:30 82° 285° (WNW) 03:19:40 437.025 USB, Beacon 2401.1428
ITAMSAT 1 23 Jul 03:16:17 03:21:18 49° 100° (E) 03:26:17 435.822 SSB
Gurwin Techsat 1B 23 Jul 03:19:07 03:23:00 20° 94° (E) 03:26:52 435.225 FM
JAS-1B 23 Jul 03:24:16 03:33:09 42° 95° (E) 03:40:54 435.800 - 435.900 CW/SSB
AO-27 23 Jul 03:33:34 03:38:47 75° 103° (ESE) 03:43:56 436.795 MHz FM
OPAL 23 Jul 03:36:06 03:40:00 24° 65° (ENE) 03:43:54 ?
Uribyol 2 23 Jul 03:37:23 03:42:34 85° 103° (ESE) 03:47:43 436.500 FM
Sapphire 23 Jul 03:45:53 03:50:43 33° 305° (NW) 03:55:35 437.095 MHz 1200 baud AX-25 AFSK
ISS 23 Jul 03:46:09 03:48:27 17° 333° (NNW) 03:50:47 145.800 FM
AO-Echo 23 Jul 03:51:34 03:56:42 70° 285° (WNW) 04:01:38 ?
PCSat 23 Jul 04:21:51 04:25:18 17° 312° (NW) 04:28:47 145.825 MHz
Oscar 19 23 Jul 04:22:50 04:26:11 18° 295° (WNW) 04:29:31 437.125 CW, 437.150 USB
TMSAT-1 23 Jul 04:37:49 04:43:08 87° 103° (ESE) 04:48:25 436.925 FM
ITAMSAT 1 23 Jul 04:56:54 05:00:23 19° 295° (WNW) 05:03:51 435.822 SSB
Gurwin Techsat 1B 23 Jul 04:58:07 05:03:07 43° 289° (WNW) 05:08:06 435.225 FM
AO-7 23 Jul 05:07:17 05:14:55 38° 99° (E) 05:22:27 29.400 - 29.500 MHz
OPAL 23 Jul 05:14:11 05:18:40 35° 260° (W) 05:23:11 ?
JAS-1B 23 Jul 05:14:35 05:23:33 46° 295° (WNW) 05:31:30 435.800 - 435.900 CW/SSB
AO-27 23 Jul 05:15:32 05:17:36 12° 298° (WNW) 05:19:41 436.795 MHz FM
Uribyol 2 23 Jul 05:20:08 05:21:16 11° 299° (WNW) 05:22:24 436.500 FM
Uosat F 23 Jul 05:42:34 05:47:37 83° 103° (ESE) 05:52:37 435.120 FM
TMSAT-1 23 Jul 06:21:04 06:22:15 11° 299° (WNW) 06:23:27 436.925 FM
AO-7 23 Jul 06:59:56 07:07:40 44° 296° (WNW) 07:15:21 29.400 - 29.500 MHz
JAS-2 23 Jul 07:17:49 07:23:41 44° 97° (E) 07:28:55 435.800 - 435.900 CW/SSB, 435.910 FM
Uosat F 23 Jul 07:24:44 07:25:39 11° 299° (WNW) 07:26:34 435.120 FM
STRAND 1 23 Jul 07:25:46 07:30:55 89° 76° (ENE) 07:36:06 ?
Hamsat 23 Jul 07:35:07 07:39:24 76° 283° (WNW) 07:43:42 145.90 MHz
KITSAT 1 23 Jul 07:38:15 07:46:05 57° 112° (ESE) 07:53:57 435.175 FM
Lituanica SAT-1 23 Jul 07:44:42 07:46:50 44° 39° (NE) 07:48:57 437.275 MHz beacon
SO-67 23 Jul 07:46:02 07:48:18 16° 94° (E) 07:50:33 435.3500 MHz FM
PANSAT 23 Jul 08:19:42 08:22:14 17° 166° (SSE) 08:24:45 not established
MaSat-1 23 Jul 08:21:25 08:26:13 33° 59° (ENE) 08:30:50 437.345 MHz
Saudisat 1A 23 Jul 08:32:22 08:34:25 13° 108° (ESE) 08:36:28 436.775 MHz
ISS 23 Jul 08:39:20 08:42:17 27° 33° (NNE) 08:45:13 145.800 FM
JAS-2 23 Jul 09:03:35 09:08:20 24° 297° (WNW) 09:12:43 435.800 - 435.900 CW/SSB, 435.910 FM
HO-68 23 Jul 09:05:14 09:09:03 15° 91° (E) 09:12:51 435.675 MHz FM
SO-67 23 Jul 09:18:34 09:21:19 22° 288° (WNW) 09:24:04 435.3500 MHz FM
KITSAT 1 23 Jul 09:34:44 09:41:49 33° 311° (NW) 09:48:57 435.175 FM
PANSAT 23 Jul 09:58:43 10:01:53 25° 179° (S) 10:05:04 not established
MaSat-1 23 Jul 09:58:55 10:03:29 30° 256° (WSW) 10:07:51 437.345 MHz
Saudisat 1A 23 Jul 10:09:11 10:13:30 54° 303° (WNW) 10:17:52 436.775 MHz
Oscar 11 23 Jul 10:14:11 10:17:02 17° 94° (E) 10:19:52 145.825 FM, Beacon 2401.500 USB
ISS 23 Jul 10:16:03 10:18:59 28° 228° (SW) 10:21:54 145.800 FM
